sat.trackr.live / text

‹ back to catalog

STARLINK-35420

NORAD 66260 · 2025-245AC

PAYLOAD ACTIVE UNKNOWN

§ Identity

Operator
Country
US
Launch date
2025-10-29
Launch site
AFETR
Launch vehicle
Mass (kg)
RCS (m²)

Purposes: comms

External: N2YO · Heavens-Above · Gunter

§ Orbital elements

Epoch: 2026-09-20T22:55:32.825856Z

Period
94.01 min
Inclination
53.1574°
Eccentricity
0.0000872
Mean motion
15.31732195 rev/d
Perigee alt
470.0 km
Apogee alt
471.2 km
Semi-major
6,848.8 km
B*
4.7554e-4
RAAN
95.4029°
Arg perigee
121.2184°
Mean anomaly
238.8904°
Rev number
5,117

§ Raw data

STARLINK-354201 66260U 25245AC  26263.95524104  .00014435  00000+0  47554-3 0  99912 66260  53.1574  95.4029 0000872 121.2184 238.8904 15.31732195 51177

JSON: /api/v1/satellites/66260 · /tle

For live sub-satellite position, see the globe view (requires WebGL).

§ Visibility from observer

Set your observer location to see the next 7 days of passes ≥ 10°. The values pass through the URL so the page stays shareable.

No JS? Fill the form by hand. The geolocation button needs JavaScript.